DMSP 5D-3 F19 DEB, 43416

Orbit data source: Space-Track

DMSP 5D-3 F19 DEB, 43416 is space debris in SSO originally from a launch on Thu, 03 Apr 2014 UTC launched from the Air Force Western Test Range (AFWTR). Debris objects in space refer to the collection of defunct objects orbiting the Earth. Examples of debris include non-operational satellites, rocket bodies, and fragments generated from explosions, collisions, or faulty payload assembly.

Loading next visibility...
Identifier
43416, 2014-015F
Orbit
SSO
Country
Flag of USUS
Related business
Manufacturer
Unknown
Mission
Spacecraft
Bus & Motor
Unknown
Mass
~1 kg wet, ~1 kg dry
Launch date (UTC)
2014-04-03 (12 years ago)
Launch vehicle
Unknown
Launch site
Air Force Western Test Range (AFWTR)
Object type
Payload
Rocket body
Debris
Shape & HBR
Cyl, 0.1 m
Radar Cross Section
0.059 m², Medium (>0.1 m² and < 1m²)

Expand to show TLE details & history
Last TLE update: 2 days ago

TLE from 2 days ago
0 DMSP 5D-3 F19 DEB
1 43416U 14015F   26171.26300713  .00001668  00000-0  67789-3 0  9999
2 43416  98.6354 187.0638 0011024  84.8867 275.3572 14.28884424627907
Epoch: 2026-06-20T06:18Z
TLE epoch observation values (Epoch: 2026-06-20T06:18:43.816Z)
Latitude
-0.00006°
Longitude
-176.0989°
Altitude
797.661 km
Speed
7.455 km/s
True Right ascension
12h 28m 15s
True Declination
0° 00' 00"
Sunlit
Object was in daylight at epoch
Visualization orbit readout
Latitude
Unknown
Longitude
Unknown
Altitude
Unknown
Speed
Unknown
Apparent Right ascension
Unknown
Apparent Declination
Unknown
Sunlit
N/A
Visualization observer readout
Local Sidereal Time
21:33:24
Azimuth
Unknown
Elevation
Unknown
Doppler factor
Unknown
Orbital elements
Apogee altitude
800.51 km
Perigee altitude
784.7 km
Semi-major axis
7,170.742 km
Eccentricity
0.0011
Inclination
98.6354°
RAAN
187.0638°
Arg. of periapsis
84.8867°
True anomaly
275.23141°
Mean anomaly
275.3572°
Eccentric anomaly
275.29431°
Mean motion
3.57435 °/min
Orbital period
100.72 mins
BSTAR
0.00067789
Loading maneuver chart data...
Computing Atmospheric mass density...
Loading historical data...
Loading historical data...
Loading historical data...
Loading historical data...
Loading historical data...
Loading historical data...
Loading historical data...

Documentation

Showing up to 5 results
|